Location: Recife
(8.0585°S, 34.8848°W)
Time: 10:32:51
(UTC-03:00)

Courier 1B Rocket - Pass Details

Date: 14 April 2026
Orbit: 920 x 1201 km, 28.2° (Epoch: 13 May)

Event Time Altitude Azimuth Distance (km) Brightness Sun altitude
Rises 13:23:53 0° 233° (SW) 4,065 8.4 54.4°
Reaches altitude 10° 13:26:50 10° 227° (SW) 3,119 7.9 53.8°
Maximum altitude 13:34:20 48° 155° (SSE) 1,521 6.3 52.1°
Drops below altitude 10° 13:41:46 10° 82° (E) 3,096 7.4 50.5°
Sets 13:44:40 0° 76° (ENE) 4,033 7.9 49.8°
